www.pogodaiklimat.ru

Погода и климат >> Архив погоды >> Парагвай >> Pilar


ПОГОДА в Pilar

  • Прогноз погоды в Pilar
  • Монитор погоды в Pilar
  • Климат города

АРХИВ ПОГОДЫ в Pilar

Время (UTC), дата Ветер
(напр.,м/с)
 
Видим.   Явления Облачность Т
(С)
Тd
(С)
f
(%)
Тe
(С)
Тes
(С)
Комфортность P
(гПа)
Po
(гПа)
Тmin
(С)
Tmax
(С)
R
(мм)
R24
(мм)
S
(см)
09 14.06 Ю 2 20 км ясно +7.4 +4.1 80 +5 +5 1026.7 1019.5
12 14.06 Ю 1 20 км 4/0
[Cs]
+7.4 +4.1 80 +7 +8 1028.9 1021.7 +6.2
15 14.06 ЮВ 2 20 км 10/4 800 м
[Sc Ac und]
+11.0 +6.3 73 +10 +12 1028.9 1021.9
18 14.06 Ю 4 20 км 10/10 800 м
[Sc]
+12.6 +5.3 61 +11 +11 1027.5 1020.5
21 14.06 Ю 5 20 км 10/4 800 м
[Sc Ac und]
+12.4 +5.0 61 +10 +10 1027.3 1020.2
00 15.06 Ю 3 20 км ясно +9.8 +5.9 77 +8 +8 1028.3 1021.2 +13.5
03 15.06 Ю 2 20 км ясно +8.0 +3.9 75 +6 +6 1029.1 1021.9
09 15.06 Ю 3 20 км 6/0 1500 м
[Ac und]
+6.0 +3.0 81 +3 +3 1029.5 1022.3
12 15.06 Ю 4 20 км 10/0 1500 м
[Ac und]
+6.4 +3.0 79 +3 +3 1030.9 1023.7 +6.0
15 15.06 Ю 4 20 км 10/4 800 м
[Sc Ac und]
+8.8 +2.1 63 +6 +7 1033.4 1026.3
18 15.06 Ю 3 20 км 10/3 800 м
[Sc Ac und]
+11.0 +4.0 62 +9 +10 1031.9 1024.8
21 15.06 Ю 3 20 км 9/1 800 м
[Sc Ac und]
+10.0 +9.6 97 +8 +8 1031.6 1024.5
00 16.06 штиль 0 20 км ясно +8.2 +5.3 82 +7 +7 1031.3 1024.2 +12.5
06 16.06 Ю 1 20 км ясно +4.2 +1.1 80 +3 +3 1031.2 1023.9
09 16.06 Ю 1 20 км ясно +4.2 +1.1 80 +3 +3 1031.2 1023.9
12 16.06 штиль 0 20 км 1/0
[Ci]
+4.8 +0.4 73 +4 +6 1032.7 1025.5 +4.0
15 16.06 Ю 7 20 км ясно +10.6 +4.8 67 +7 +10 1032.1 1025.0
18 16.06 Ю 4 20 км ясно +13.6 +3.3 50 +12 +16 1029.2 1022.2
21 16.06 Ю 3 20 км ясно +13.2 +6.0 62 +12 +12 1027.6 1020.6
00 17.06 Ю 2 20 км ясно +9.4 +3.3 66 +8 +8 1028.5 1021.4 +14.5
03 17.06 Ю 2 20 км ясно +7.6 +3.9 77 +6 +6 1029.2 1022.0
06 17.06 Ю 2 20 км ясно +5.6 +1.9 77 +4 +4 1025.8 1021.6
09 17.06 Ю 2 20 км ясно +4.8 +0.7 75 +2 +2 1028.7 1021.5
12 17.06 Ю 1 20 км ясно +5.0 +3.4 89 +4 +5 1029.9 1022.7 +4.2
00 18.06 Ю 1 20 км ясно +9.4 +6.4 82 +9 +9 1028.3 1021.2 +16.0
03 18.06 Ю 1 20 км ясно +7.4 +4.1 80 +7 +7 1029.3 1022.1
06 18.06 Ю 1 20 км ясно +6.2 +4.0 86 +5 +5 1029.3 1022.1
09 18.06 Ю 1 20 км ясно +5.0 +2.5 84 +4 +4 1029.3 1022.1
12 18.06 Ю 1 20 км ясно +6.0 +3.0 81 +5 +7 1028.2 1021.0 +4.0
15 18.06 Ю 1 20 км ясно +16.0 +8.5 61 +17 +27 1028.2 1021.2
18 18.06 Ю 1 20 км ясно +18.6 +9.9 57 +20 +27 1025.7 1018.6
21 18.06 Ю 2 20 км ясно +15.6 +11.1 75 +15 +15 1023.6 1016.6
00 19.06 Ю 1 20 км ясно +12.4 +9.6 83 +12 +12 1024.1 1017.0 +20.0
06 19.06 Ю 1 20 км ясно +9.0 +6.8 86 +8 +8 1024.9 1017.8
09 19.06 Ю 1 20 км ясно +6.0 +3.6 85 +5 +5 1023.9 1016.7
12 19.06 Ю 1 20 км ясно +9.4 +6.4 82 +9 +10 1022.1 1015.0 +4.0
15 19.06 С 7 20 км ясно +21.0 +12.1 57 +23 +26 комфорт 1020.7 1013.8
18 19.06 С 5 20 км 1/0
[Ci]
+25.6 +14.9 52 +28 +31 жарко 1018.4 1011.7
21 19.06 СВ 2 20 км 1/0
[Ci]
+24.4 +17.3 65 +28 +28 душно 1017.0 1010.2
00 20.06 СВ 1 20 км ясно +25.0 +11.4 43 +26 +26 жарко 1023.0 1015.6 +28.0
03 20.06 СВ 4 20 км ясно +22.6 +12.8 54 +25 +25 комфорт 1017.6 1010.7
06 20.06 СВ 4 20 км ясно +17.4 +11.1 66 +17 +17 1017.6 1010.7
09 20.06 СВ 2 20 км ясно +15.2 +11.2 77 +15 +15 1018.1 1011.1
12 20.06 СВ 2 20 км 3/0 2000 м
[Ac trans]
+16.0 +12.7 81 +16 +17 1019.5 1012.5 +9.4
15 20.06 С 4 20 км ясно +22.4 +15.0 63 +26 +32 жарко 1020.5 1013.7
18 20.06 С 4 20 км ясно +28.0 +18.7 57 +33 +37 очень
душно
1017.1 1010.4
21 20.06 С 2 20 км ясно +24.4 +19.1 72 +29 +29 душно 1015.6 1008.9
00 21.06 СВ 2 20 км ясно +22.0 +15.3 66 +26 +26 душно 1015.2 1008.5 +29.0
03 21.06 СВ 2 20 км ясно +21.2 +15.9 72 +25 +25 комфорт 1014.7 1007.9
06 21.06 СВ 2 20 км ясно +20.0 +16.7 81 +23 +23 комфорт 1014.9 1008.1

 

Местоположение метеостанции Pilar (Парагвай): широта -26.85 долгота -58.31 высота над уровнем моря 56 м.

В архиве по умолчанию представлена погода в Pilar за последнюю неделю. Архивные данные за месяц целиком и за предыдущие месяцы, начиная с января 2011 года, Вы можете получить, выбрав интересующий диапазон дат из раскрывающегося списка и нажав кнопку "Ввод!".


*Определитесь, кто Вы:
робот инопланетянин человек

Внимание! Время в таблицах - всемирное. Для получения местного времени необходимо прибавить поправку, которая в Pilar равна -4 ч.

Смотрите также архив погоды в соседних городах и на ближайших метеорологических станциях:

Погода в Formosa (Аргентина) (73 км)
Погода в Corrientes (Аргентина) (80 км)
Погода в Resistencia (Аргентина) (99 км)
Погода в San Juan Bautista Misiones (Парагвай) (117 км)
Погода в Quyquyhat (Парагвай) (150 км)
Погода в Paraguari (Парагвай) (180 км)
Погода в Asuncion (Парагвай) (195 км)
Погода в Caazapa (Парагвай) (209 км)
Погода в Presidencia Roque Saenz Pena (Аргентина) (216 км)
Погода в Villarrica (Парагвай) (224 км)

Пояснения к столбцам:

Ветер - указаны скорость ветра в м/с - средняя за 10 мин, порывы в срок и между сроками (в фигурных скобках) и направление, откуда дует ветер: С - северный, СВ - северо-восточный, В - восточный, ЮВ - юго-восточный, Ю - южный, ЮЗ - юго-западный, З - западный, СЗ - северо-западный.
Видимость - горизонтальная дальность видимости в метрах или километрах. При видимости от 1 до 10 км при отсутствии осадков обычно наблюдается дымка, при ухудшении видимости до 1 км и менее - туман. В сухую погоду видимость может ухудшаться дымом, пылью или мглою.
Явления - указаны атмосферные явления, наблюдавшиеся в срок или в последний час перед сроком; фигурными скобками обозначены явления, наблюдавшиеся между сроками (за 1-3 часа до срока); квадратными скобками обозначены град или гололедные отложения с указанием их диаметра в мм.
Облачность - указаны через наклонную черту общая и нижняя облачность в баллах и высота нижней границы облаков в метрах; квадратными скобками обозначены формы облаков: Ci - перистые, Cs - перисто-слоистые, Cc - перисто-кучевые, Ac - высококучевые, As - высокослоистые, Sc - слоисто-кучевые, Ns - слоисто-дождевые, Cu - кучевые, Cb - кучево-дождевые. Подробнее классификацию облаков см. в Атласе облаков (PDF).
T - Температура воздуха - температура, измеренная на высоте 2 м над землей.
Td - Температура точки росы - температура, при понижении до которой содержащийся в воздухе водяной пар достигнет насыщения.
f - Относительная влажность воздуха - влажноcть воздуха, измеренная на высоте 2 м над землей.
Te - Эффективная температура - температура, которую ощущает одетый по сезону человек в тени. Характеристика душности погоды. При расчете учитывается влияние влажности воздуха и скорости ветра на теплоощущения человека.
Tes - Эффективная температура на солнце - температура, которую ощущает человек, с поправкой на солнечный нагрев. Характеристика знойности погоды. Зависит от высоты солнца над горизонтом, облачности и скорости ветра. Ночью, в пасмурную погоду, а также при ветре 12 м/с и более поправка равна нулю.
P - Атмосферное давление - приведенное к уровню моря атмосферное давление.
Po - Атмосферное давление - измеренное на уровне метеостанции атмосферное давление.
Tmin - Минимальная температура - минимум температуры воздуха на высоте 2 м над землей.
Tmax - Максимальная температура - максимум температуры воздуха на высоте 2 м над землей.
R - Количество осадков - Количество выпавших осадков за период времени, мм. При наведении курсора мыши на число - период времени, за который выпало указанное количество осадков.
R24 - Количество осадков - Количество выпавших осадков за 24 часа, мм.
S - Снежный покров - Высота снежного покрова, см. При наведении курсора мыши на число - состояние снежного покрова и степень покрытия местности в баллах.